When you browse on this site, cookies collect data to enhance your experience and personalize the content and advertising you see.
Visit our Privacy Policy to learn more. By continuing to use the site, you agree to this use of cookies and data.

Tiempo cada hora Manaus

Hoy, 19 Septiembre, Sábado

Tiempo Temperatura Precipitaciones Viento Presión Humedad
00:00 +28°C° 0 mm 0 mps 752 mmHg 58%
01:00 +28°C° 0 mm 0 mps 751 mmHg 59%
02:00 +28°C° 0 mm 0 mps 751 mmHg 59%
03:00 +27°C° 0 mm 0 mps 751 mmHg 62%
04:00 +26°C° 0 mm 0 mps 751 mmHg 64%
05:00 +26°C° 0 mm 0 mps 752 mmHg 67%
06:00 +27°C° 0 mm 0 mps 752 mmHg 63%
07:00 +28°C° 0 mm 0 mps 753 mmHg 60%
08:00 +30°C° 0 mm 0 mps 754 mmHg 56%
09:00 +34°C° 0 mm 1 mps 754 mmHg 49%
10:00 +36°C° 0 mm 1 mps 754 mmHg 42%
11:00 +40°C° 0 mm 2 mps 754 mmHg 35%
12:00 +40°C° 0 mm 1 mps 753 mmHg 34%
13:00 +40°C° 0 mm 1 mps 752 mmHg 33%
14:00 +40°C° 0 mm 1 mps 751 mmHg 32%
15:00 +40°C° 0 mm 1 mps 750 mmHg 35%
16:00 +36°C° 0 mm 0 mps 750 mmHg 37%
17:00 +36°C° 0 mm 0 mps 750 mmHg 39%
18:00 +33°C° 0 mm 0 mps 751 mmHg 44%
19:00 +33°C° 0 mm 1 mps 751 mmHg 50%
20:00 +31°C° 0 mm 1 mps 752 mmHg 55%
21:00 +30°C° 0 mm 1 mps 752 mmHg 56%
22:00 +30°C° 0 mm 1 mps 752 mmHg 57%
23:00 +30°C° 0 mm 1 mps 752 mmHg 58%

Mañana, 20 Septiembre, Domingo

Tiempo Temperatura Precipitaciones Viento Presión Humedad
00:00 +27°C° 0 mm 0 mps 751 mmHg 59%
01:00 +27°C° 0 mm 0 mps 751 mmHg 60%
02:00 +26°C° 0 mm 0 mps 750 mmHg 61%
03:00 +26°C° 0 mm 0 mps 751 mmHg 62%
04:00 +28°C° 0 mm 1 mps 751 mmHg 64%
05:00 +27°C° 0 mm 1 mps 751 mmHg 65%
06:00 +29°C° 0 mm 1 mps 752 mmHg 60%
07:00 +31°C° 0 mm 1 mps 753 mmHg 56%
08:00 +32°C° 0 mm 1 mps 754 mmHg 52%
09:00 +35°C° 0 mm 1 mps 753 mmHg 45%
10:00 +37°C° 0 mm 1 mps 753 mmHg 39%
11:00 +41°C° 0 mm 1 mps 753 mmHg 32%
12:00 +42°C° 0 mm 1 mps 752 mmHg 30%
13:00 +42°C° 0 mm 1 mps 751 mmHg 28%
14:00 +43°C° 0 mm 1 mps 750 mmHg 25%
15:00 +42°C° 0 mm 1 mps 749 mmHg 28%
16:00 +38°C° 0 mm 0 mps 749 mmHg 31%
17:00 +37°C° 0 mm 0 mps 749 mmHg 34%
18:00 +35°C° 0 mm 0 mps 750 mmHg 38%
19:00 +35°C° 0 mm 1 mps 750 mmHg 43%
20:00 +33°C° 0 mm 1 mps 750 mmHg 47%
21:00 +32°C° 0 mm 1 mps 751 mmHg 49%
22:00 +31°C° 0 mm 1 mps 751 mmHg 51%
23:00 +31°C° 0 mm 1 mps 751 mmHg 53%

Pasado mañana, 21 Septiembre, Lunes

Tiempo Temperatura Precipitaciones Viento Presión Humedad
00:00 +30°C° 0 mm 1 mps 751 mmHg 55%
01:00 +30°C° 0 mm 1 mps 751 mmHg 56%
02:00 +29°C° 0 mm 1 mps 750 mmHg 58%
03:00 +29°C° 0 mm 1 mps 751 mmHg 61%
04:00 +28°C° 0 mm 2 mps 751 mmHg 64%
05:00 +27°C° 0 mm 2 mps 751 mmHg 67%
06:00 +29°C° 0 mm 2 mps 752 mmHg 63%
07:00 +30°C° 0 mm 2 mps 753 mmHg 59%
08:00 +32°C° 0 mm 2 mps 753 mmHg 55%
09:00 +35°C° 0 mm 2 mps 753 mmHg 48%
10:00 +38°C° 0 mm 2 mps 753 mmHg 40%
11:00 +41°C° 0 mm 2 mps 752 mmHg 33%
12:00 +41°C° 0 mm 1 mps 751 mmHg 33%
13:00 +41°C° 0 mm 1 mps 750 mmHg 32%
14:00 +41°C° 0 mm 1 mps 749 mmHg 32%
15:00 +40°C° 0 mm 1 mps 749 mmHg 36%
16:00 +39°C° 0 mm 1 mps 749 mmHg 39%
17:00 +37°C° 0 mm 1 mps 749 mmHg 43%
18:00 +34°C° 0 mm 1 mps 750 mmHg 49%
19:00 +32°C° 0 mm 1 mps 750 mmHg 56%
20:00 +30°C° 0 mm 1 mps 751 mmHg 63%
21:00 +29°C° 0.4 mm 1 mps 751 mmHg 70%
22:00 +28°C° 0.4 mm 1 mps 751 mmHg 77%
23:00 +27°C° 0.4 mm 1 mps 751 mmHg 84%

22 Septiembre, Martes

Tiempo Temperatura Precipitaciones Viento Presión Humedad
00:00 +26°C° 0.7 mm 1 mps 751 mmHg 87%
01:00 +26°C° 0.7 mm 1 mps 751 mmHg 90%
02:00 +25°C° 0.7 mm 1 mps 751 mmHg 92%
03:00 +25°C° 0.2 mm 1 mps 751 mmHg 93%
04:00 +25°C° 0.2 mm 1 mps 752 mmHg 93%
05:00 +25°C° 0.2 mm 2 mps 752 mmHg 93%
06:00 +26°C° 0.3 mm 1 mps 752 mmHg 89%
07:00 +28°C° 0.3 mm 1 mps 753 mmHg 84%
08:00 +29°C° 0.3 mm 1 mps 754 mmHg 80%
09:00 +32°C° 0 mm 2 mps 754 mmHg 68%
10:00 +35°C° 0 mm 2 mps 754 mmHg 55%
11:00 +38°C° 0 mm 2 mps 754 mmHg 42%
12:00 +38°C° 0.3 mm 2 mps 753 mmHg 42%
13:00 +37°C° 0.3 mm 1 mps 752 mmHg 42%
14:00 +37°C° 0.3 mm 1 mps 751 mmHg 42%
15:00 +37°C° 0.3 mm 1 mps 750 mmHg 44%
16:00 +36°C° 0.3 mm 1 mps 750 mmHg 46%
17:00 +34°C° 0.3 mm 0 mps 749 mmHg 47%
18:00 +34°C° 0.1 mm 1 mps 750 mmHg 54%
19:00 +32°C° 0.1 mm 1 mps 750 mmHg 60%
20:00 +30°C° 0.1 mm 2 mps 751 mmHg 66%
21:00 +29°C° 0.1 mm 1 mps 751 mmHg 72%
22:00 +28°C° 0.1 mm 1 mps 752 mmHg 78%
23:00 +28°C° 0.1 mm 1 mps 752 mmHg 85%

23 Septiembre, Miércoles

Tiempo Temperatura Precipitaciones Viento Presión Humedad
00:00 +27°C° 0 mm 1 mps 752 mmHg 86%
01:00 +27°C° 0 mm 1 mps 752 mmHg 88%
02:00 +27°C° 0 mm 1 mps 752 mmHg 90%
03:00 +26°C° 0 mm 1 mps 752 mmHg 91%
04:00 +26°C° 0 mm 1 mps 752 mmHg 92%
05:00 +26°C° 0 mm 1 mps 752 mmHg 94%
06:00 +25°C° 0 mm 0 mps 753 mmHg 87%
07:00 +27°C° 0 mm 0 mps 754 mmHg 80%
08:00 +28°C° 0 mm 0 mps 755 mmHg 73%
09:00 +33°C° 0 mm 1 mps 755 mmHg 63%
10:00 +35°C° 0 mm 1 mps 755 mmHg 53%
11:00 +37°C° 0 mm 1 mps 754 mmHg 43%
12:00 +37°C° 0 mm 1 mps 754 mmHg 42%
13:00 +39°C° 0 mm 1 mps 753 mmHg 41%
14:00 +39°C° 0 mm 1 mps 752 mmHg 39%
15:00 +37°C° 0 mm 1 mps 751 mmHg 43%
16:00 +36°C° 0 mm 1 mps 751 mmHg 46%
17:00 +35°C° 0 mm 1 mps 751 mmHg 49%
18:00 +33°C° 0 mm 1 mps 751 mmHg 54%
19:00 +32°C° 0 mm 1 mps 751 mmHg 59%
20:00 +31°C° 0 mm 1 mps 751 mmHg 64%
21:00 +30°C° 0 mm 1 mps 751 mmHg 65%
22:00 +30°C° 0 mm 1 mps 752 mmHg 67%
23:00 +29°C° 0 mm 1 mps 752 mmHg 69%

24 Septiembre, Jueves

Tiempo Temperatura Precipitaciones Viento Presión Humedad
00:00 +29°C° 0 mm 1 mps 752 mmHg 70%
01:00 +28°C° 0 mm 1 mps 752 mmHg 72%
02:00 +28°C° 0 mm 1 mps 751 mmHg 74%
03:00 +28°C° 0.1 mm 1 mps 752 mmHg 74%
04:00 +28°C° 0.1 mm 1 mps 752 mmHg 74%
05:00 +26°C° 0.1 mm 0 mps 752 mmHg 74%
06:00 +27°C° 0.1 mm 0 mps 753 mmHg 73%
07:00 +28°C° 0.1 mm 0 mps 754 mmHg 72%
08:00 +29°C° 0.1 mm 0 mps 755 mmHg 71%
09:00 +32°C° 0.1 mm 1 mps 755 mmHg 64%
10:00 +34°C° 0.1 mm 1 mps 755 mmHg 57%
11:00 +35°C° 0.1 mm 1 mps 755 mmHg 51%
12:00 +36°C° 0.1 mm 1 mps 754 mmHg 48%
13:00 +37°C° 0.1 mm 1 mps 753 mmHg 45%
14:00 +37°C° 0.1 mm 1 mps 752 mmHg 43%
15:00 +37°C° 0 mm 1 mps 751 mmHg 44%
16:00 +36°C° 0 mm 1 mps 751 mmHg 46%
17:00 +35°C° 0 mm 1 mps 750 mmHg 47%
18:00 +34°C° 0 mm 1 mps 751 mmHg 53%
19:00 +32°C° 0 mm 1 mps 751 mmHg 59%
20:00 +30°C° 0 mm 1 mps 752 mmHg 64%
21:00 +29°C° 0 mm 1 mps 752 mmHg 67%
22:00 +29°C° 0 mm 1 mps 753 mmHg 70%
23:00 +26°C° 0 mm 0 mps 753 mmHg 72%
Mostrar más